Lapse_Rate
8.6 6.3 5.0 5.9 5.6 7.1 8.2 7.3 6.4 5.5 5.6 6.5 6.9 5.5 7.9 7.4 7.5 8.4 7.1 7.2 6.5 6.2 7.1 6.1 5.8 6.5 6.1 6.3 6.2 5.9 5.7 5.7
8.8 9.1 9.0 7.9 6.0 6.2 6.6 6.0 5.0 6.5 6.9 5.9 6.9 7.7 6.0 6.8 7.8 6.9 6.7 6.2 6.0 6.5 6.7 6.4 6.7 6.4 6.7 5.9 6.1 5.9 5.7 6.0
8.8 8.9 9.1 8.6 7.3 7.6 8.8 6.0 4.3 8.1 8.1 7.9 6.6 6.8 6.8 5.9 7.7 6.9 6.3 6.6 5.6 5.7 6.2 7.2 6.5 6.2 6.4 6.0 5.2 5.2 6.3 5.7
8.7 8.9 8.8 9.1 8.8 7.5 8.8 6.9 5.5 7.1 7.7 7.7 6.0 6.9 6.5 6.7 6.5 8.0 7.0 6.2 5.3 5.3 6.0 6.6 5.9 5.5 5.6 6.0 5.6 5.5 5.3 5.3
8.6 8.8 8.9 8.9 8.9 7.6 6.4 5.6 5.0 4.4 7.4 7.6 6.1 6.1 7.4 7.3 6.4 8.4 8.0 7.5 5.1 5.3 5.9 6.7 5.5 5.7 5.5 6.0 5.8 5.5 5.1 5.7
8.5 8.8 9.2 9.2 8.9 7.1 6.4 4.6 3.5 3.2 2.4 6.4 6.9 5.1 6.1 7.4 6.1 7.2 7.7 7.5 6.5 4.6 5.1 6.3 6.4 5.8 5.4 5.2 4.8 4.7 4.9 5.1
8.4 8.5 8.9 8.9 8.1 5.5 5.8 5.6 3.3 3.0 3.0 2.7 4.8 5.4 5.3 6.5 7.2 6.3 6.8 7.2 5.9 5.2 5.0 5.1 6.0 6.6 5.5 4.1 3.7 3.9 3.7 3.9
7.8 7.5 7.7 8.2 7.6 5.8 5.4 4.8 3.8 5.3 4.8 4.1 2.8 2.4 5.2 6.1 7.5 6.2 7.1 7.3 7.3 5.2 3.9 3.9 5.0 6.5 4.7 4.4 3.9 3.6 2.5 3.3
7.7 7.5 7.3 7.4 7.5 7.2 5.8 4.8 3.7 4.2 5.6 5.6 3.8 3.0 2.6 4.1 7.4 6.4 7.9 7.8 7.6 6.4 3.8 4.1 4.2 6.4 5.2 4.6 4.5 3.5 3.1 2.9
7.3 7.4 7.1 7.5 7.4 6.0 6.2 4.7 4.0 5.1 5.3 6.3 4.0 3.5 2.4 2.2 3.5 2.3 7.0 7.3 7.2 7.4 6.0 4.7 6.3 6.4 5.0 2.5 3.6 3.1 2.8 2.5
7.3 7.1 6.5 7.0 6.9 6.5 6.0 4.9 4.1 5.4 5.7 6.4 5.6 4.6 2.4 0.8 2.9 1.0 4.2 2.3 4.3 4.3 4.6 4.3 4.6 5.0 4.7 5.1 5.1 4.3 5.1 4.6
7.0 6.7 6.4 6.0 5.3 5.5 5.2 5.0 4.7 5.6 5.4 6.0 6.3 6.0 3.9 2.1 3.7 1.7 3.0 1.1 1.0 1.5 2.3 2.4 3.9 3.8 4.0 4.4 5.5 6.1 6.1 5.5
7.1 7.0 6.4 6.2 4.9 5.0 5.3 5.1 5.3 4.7 5.5 6.7 4.1 5.2 3.6 1.5 2.8 6.0 2.4 3.8 1.7 1.1 1.2 2.2 4.2 5.3 5.9 5.7 5.2 5.0 5.4 5.7
7.2 7.1 6.6 6.6 5.9 5.8 5.6 5.3 5.1 4.7 5.8 6.1 4.8 4.2 3.3 2.3 3.6 5.9 4.1 2.8 7.3 3.1 1.0 0.1 0.5 3.2 4.7 5.8 5.4 5.8 6.1 6.4
7.4 7.3 7.3 7.2 6.7 6.2 5.8 5.6 4.8 4.9 4.9 5.3 6.3 3.9 4.9 2.4 5.5 4.4 4.1 1.5 3.4 4.6 4.5 3.4 2.3 5.1 2.1 1.0 0.8 1.0 2.5 4.7
7.6 7.5 7.5 7.7 7.1 6.4 6.2 6.7 6.4 6.2 5.8 5.4 5.1 6.3 5.4 3.5 3.0 4.4 4.1 3.5 3.5 3.3 4.2 3.6 3.4 4.5 -0.2 -1.9 -1.5 -0.4 -0.2 0.6
8.0 8.2 8.1 7.9 7.8 7.6 7.6 7.0 6.2 6.2 5.3 6.3 5.4 5.1 6.0 7.6 6.6 4.6 3.0 3.2 6.1 6.6 5.3 5.0 4.7 2.1 -1.5 -0.9 -2.0 -1.7 -1.3 -0.5
8.2 8.3 8.4 8.1 7.6 7.7 7.7 8.0 7.7 7.0 4.8 5.5 3.7 5.8 6.4 6.1 7.0 6.9 6.9 6.9 7.4 7.2 6.9 5.0 5.3 3.1 0.3 1.0 0.6 0.5 0.9 1.5
8.3 8.5 8.2 8.0 8.2 7.8 7.7 7.8 7.8 6.8 7.5 7.0 5.5 5.9 5.2 5.9 4.8 6.6 7.4 8.1 5.7 4.9 4.2 4.9 5.1 5.8 2.3 0.7 -0.8 -0.3 -0.6 0.4
Wind_Speed
24 28 28 27 26 24 24 13 12 9 7 13 12 11 11 11 10 13 13 16 20 11 10 10 9 7 7 7 6 4 4 4
20 20 23 26 25 26 24 20 27 11 10 8 14 14 12 12 13 12 10 12 15 14 9 10 11 10 10 8 7 6 5 4
22 21 21 22 25 25 23 25 27 19 12 10 10 14 14 11 13 15 17 15 15 15 12 11 12 10 9 10 9 3 4 4
23 23 21 22 23 25 24 24 26 25 15 12 10 14 14 15 15 13 18 16 18 18 15 9 12 10 8 10 11 11 6 3
22 23 22 21 21 22 23 24 25 25 15 14 14 10 17 15 14 15 15 20 19 18 18 15 13 10 12 8 10 10 7 7
22 22 23 20 19 19 20 23 23 25 24 13 13 13 12 16 14 22 18 18 18 20 19 19 13 11 13 11 13 12 9 7
22 22 21 21 20 21 20 20 21 22 22 22 17 15 12 17 20 17 13 12 13 17 17 16 18 10 13 13 14 15 12 11
19 21 19 19 22 21 20 21 23 22 22 20 18 14 16 19 27 17 18 12 13 17 18 17 16 14 13 13 13 13 15 13
17 18 18 19 20 21 21 20 21 23 20 18 14 12 9 12 23 16 16 15 16 19 18 19 20 18 14 12 8 6 7 7
18 18 16 18 18 20 19 20 20 22 21 16 13 14 15 15 12 5 14 17 15 17 19 20 17 16 13 13 10 11 6 6
16 15 16 17 18 17 20 20 20 21 18 14 11 14 15 16 15 17 17 12 10 9 8 7 8 12 12 11 9 6 7 7
14 14 14 16 17 19 19 21 19 18 17 15 14 15 16 16 15 13 15 15 17 14 11 11 3 5 5 5 6 9 8 7
13 14 15 16 18 19 17 17 16 15 16 14 16 13 15 20 18 14 12 16 13 11 12 12 8 10 3 3 5 5 4 5
14 15 14 14 15 14 13 12 13 13 13 15 15 17 18 20 16 14 16 18 10 14 13 13 14 10 8 8 7 7 6 6
13 14 14 15 15 13 13 13 12 11 13 16 14 18 17 15 13 19 19 19 19 17 13 12 12 8 14 14 15 13 13 10
14 14 14 16 17 17 17 14 14 12 11 14 16 15 14 17 16 16 14 16 14 15 14 13 11 11 12 14 13 12 11 13
16 16 15 16 18 17 18 19 18 18 18 17 16 14 16 11 11 14 17 16 11 10 11 11 9 10 21 19 16 10 11 11
15 15 14 14 16 16 17 17 17 17 19 20 21 18 16 17 15 16 17 13 8 9 10 11 11 12 21 21 19 10 9 10
15 12 13 14 14 14 14 15 15 16 15 16 17 16 16 16 16 15 13 11 14 12 14 14 11 10 17 23 24 11 10 11
Wind_Direction
355 347 343 336 332 335 326 308 293 287 265 225 225 210 229 204 222 206 182 187 188 190 192 184 186 193 196 200 212 163 169 186
351 344 338 332 332 327 333 324 319 275 277 247 229 224 215 228 211 209 191 179 191 190 207 182 183 183 200 191 191 200 203 201
347 345 339 336 326 323 323 326 320 281 260 260 231 228 222 211 222 205 214 185 189 194 201 188 190 185 192 190 186 180 197 182
342 340 341 334 328 326 325 320 312 296 254 256 257 235 225 224 222 211 205 188 189 195 198 198 179 182 194 185 192 189 188 187
341 338 338 332 329 326 325 323 320 326 252 251 253 248 233 221 218 211 194 198 185 188 191 201 180 187 196 186 178 182 162 187
344 341 332 335 334 329 327 329 332 332 334 263 251 241 245 232 218 222 195 196 177 181 189 198 206 183 194 172 165 175 176 171
349 344 340 334 337 333 334 336 337 335 330 321 305 253 251 234 224 214 207 185 174 178 181 191 204 210 176 169 169 172 180 188
351 348 338 338 339 341 335 337 340 335 336 325 321 309 268 244 232 201 202 190 195 182 179 185 197 200 180 171 178 184 192 203
349 344 344 341 337 340 340 342 347 337 332 326 326 347 314 303 235 199 205 196 191 181 178 187 194 188 179 179 176 193 182 207
348 343 343 341 343 345 340 348 348 334 335 332 353 11 9 354 341 328 224 182 181 177 179 185 188 174 174 178 179 189 192 207
343 337 346 343 348 345 349 351 359 335 342 329 4 19 25 15 349 22 310 97 109 103 98 102 157 167 169 178 206 195 206 219
340 339 342 344 351 354 352 359 349 332 340 342 0 23 26 30 11 355 342 51 70 70 63 55 237 116 124 194 222 232 206 206
341 347 346 354 357 352 345 354 336 329 336 -0 16 5 29 37 23 334 5 20 45 62 64 61 26 24 285 237 227 216 228 263
348 356 360 356 352 345 339 339 340 335 338 3 29 16 14 40 17 346 29 46 357 48 51 53 44 359 1 336 347 332 308 275
355 358 0 2 354 348 353 349 354 341 353 8 21 30 18 35 351 5 26 38 12 24 40 55 47 10 30 8 6 352 347 333
3 3 3 2 355 355 353 0 12 357 358 9 30 34 27 22 11 12 28 43 25 22 22 34 38 53 34 22 3 344 336 326
3 5 11 4 358 354 353 358 7 1 12 19 13 30 26 25 27 12 22 38 39 42 41 40 31 51 26 14 8 341 329 317
4 9 14 11 360 354 358 358 3 8 10 10 13 10 18 21 18 29 29 31 12 38 42 50 37 41 26 5 357 333 320 297
2 10 17 12 4 358 357 4 9 8 18 15 12 10 18 13 21 17 26 25 24 20 24 23 24 32 19 7 358 345 336 323